WATER LEVELS

Guaranteed water level and forecast    Ústí nad Labem-Střekov

Guaranteed water level
110 cm
on 21.09.2018 more information
Forecast
110 cm
on 22.09.2018 07:00
Tendency
steady state
on 22.09.2018 metodika tendence
Forecast
(Source data ČHMÚ a Povodí Labe)

Ústí nad Labem

Date and time (UTC) H (cm) Q (m3/s)
21. 9. 2018 16:30 111 61
21. 9. 2018 16:00 115 65
21. 9. 2018 15:00 110 60
21. 9. 2018 14:00 111 61
21. 9. 2018 13:00 119 69
21. 9. 2018 12:00 145 101
21. 9. 2018 11:00 130 82
21. 9. 2018 10:00 130 82
21. 9. 2018 09:00 130 82
21. 9. 2018 08:00 130 82
21. 9. 2018 07:00 130 82
21. 9. 2018 06:00 130 82
21. 9. 2018 05:00 130 82
21. 9. 2018 04:00 130 82

H - vodni stav, Q - discharge
more information

Mělník

Date and time (UTC) H (cm) Q (m3/s)
21. 9. 2018 16:30 255 -
21. 9. 2018 16:00 254 -
21. 9. 2018 15:00 256 -
21. 9. 2018 14:00 259 -
21. 9. 2018 13:00 256 -
21. 9. 2018 12:00 253 -
21. 9. 2018 11:00 256 -
21. 9. 2018 10:00 264 -
21. 9. 2018 09:00 257 -
21. 9. 2018 08:00 259 -
21. 9. 2018 07:00 259 -
21. 9. 2018 06:00 256 58
21. 9. 2018 05:00 255 -
21. 9. 2018 04:00 258 -

H - vodni stav, Q - discharge
more information

Kostelec nad Labem

Date and time (UTC) H (cm) Q (m3/s)
21. 9. 2018 16:30 392 -
21. 9. 2018 16:00 391 -
21. 9. 2018 15:00 391 5
21. 9. 2018 14:00 389 6
21. 9. 2018 13:00 391 5
21. 9. 2018 12:00 397 6
21. 9. 2018 11:00 394 13
21. 9. 2018 10:00 391 19
21. 9. 2018 09:00 390 13
21. 9. 2018 08:00 395 21
21. 9. 2018 07:00 391 20
21. 9. 2018 06:00 389 10
21. 9. 2018 05:00 393 -
21. 9. 2018 04:00 391 15

H - vodni stav, Q - discharge
more information

Přelouč

Date and time (UTC) H (cm) Q (m3/s)
21. 9. 2018 16:30 22 9
21. 9. 2018 16:00 23 10
21. 9. 2018 15:00 49 20
21. 9. 2018 14:00 37 14
21. 9. 2018 13:00 41 16
21. 9. 2018 12:00 25 10
21. 9. 2018 11:00 23 10
21. 9. 2018 10:00 32 12
21. 9. 2018 09:00 39 15
21. 9. 2018 08:00 27 11
21. 9. 2018 07:00 24 10
21. 9. 2018 06:00 35 13
21. 9. 2018 05:00 30 12
21. 9. 2018 04:00 22 9

H - vodni stav, Q - discharge
more information

Praha-Chuchle

Date and time (UTC) H (cm) Q (m3/s)
21. 9. 2018 16:20 43 44
21. 9. 2018 16:00 44 47
21. 9. 2018 15:00 43 44
21. 9. 2018 14:00 43 44
21. 9. 2018 13:00 44 47
21. 9. 2018 12:00 44 47
21. 9. 2018 11:00 41 39
21. 9. 2018 10:00 43 44
21. 9. 2018 09:00 44 47
21. 9. 2018 08:00 43 44
21. 9. 2018 07:00 44 47
21. 9. 2018 06:00 44 47
21. 9. 2018 05:00 44 47
21. 9. 2018 04:00 44 47

H - vodni stav, Q - discharge
more information

České Budějovice

Date and time (UTC) H (cm) Q (m3/s)
21. 9. 2018 16:30 100 13
21. 9. 2018 16:00 102 15
21. 9. 2018 15:00 101 15
21. 9. 2018 14:00 102 14
21. 9. 2018 13:00 106 16
21. 9. 2018 12:00 102 15
21. 9. 2018 11:00 99 14
21. 9. 2018 10:00 106 16
21. 9. 2018 09:00 100 8
21. 9. 2018 08:00 103 14
21. 9. 2018 07:00 103 14
21. 9. 2018 06:00 103 14
21. 9. 2018 05:00 102 14
21. 9. 2018 04:00 103 14

H - vodni stav, Q - discharge
more information
Source data
Labe Basin Vltava Basin ČHMÚ